Find Chuangxin-16B

NORAD ID: 53876 Int'l Des: 2022-102 Owner: IMICAS Country: CN operational
LEOCIRCULAR

Current View

Loading 3D Globe...

About Chuangxin-16B

Chuangxin-16B (NORAD 53876) is a satellite launched Aug 23, 2022 by IMICAS of CN. It operates in LEO, CIRCULAR orbit with a mass of 100.00 kg.

Upcoming Passes

Passes for default location (London). Set your location on the main map for personalized predictions.

Altitude History

Loading altitude history...

Two-Line Element Set

1 53876U 22102B 26194.86970016 .00029965 00000-0 55569-3 0 9999
2 53876 28.9909 5.7877 0001766 24.9860 335.0835 15.47578110210842
Epoch: Jul 13, 2026 • Age: 19 hours

Current Status

Altitude 420.1 km
Apogee / Perigee N/A
Velocity 7.66 km/s
Sub-Earth Point 9.74°N, 147.19°W
Launch Date Aug 23, 2022
Age 3.8 years
Type other

Technical Details

Classification Payload
Mass 100.00 kg
Dry Mass 100.00 kg
Total Mass 100.00 kg
Length 1.00 m
Diameter 0.50 m
Span 2.00 m
Shape Box+pan
Manufacturer IMICAS
Bus Type CX16
Phase Status In Orbit
Owner/State IMICAS/CN

Most Searched